Location: Newark
(49.3000°N, 9.4667°E)
Time: 11:19:11
(UTC+00:00)

Transit 2A Rocket - Visible Passes

Search period start: 19 May 2019 00:00
Search period end: 29 May 2019 00:00
Orbit: 585 x 919 km, 66.7° (Epoch: 18 May)

Date Brightness Start Highest point End Pass type
(mag) Time Alt. Az. Time Alt. Az. Time Alt. Az.
19 May 6.7 01:12:05 10° NNW 01:17:30 37° NE 01:22:28 10° ESE visible
19 May 5.2 02:54:50 10° NW 03:00:22 52° WSW 03:05:23 10° SSE visible
19 May 8.2 21:00:51 10° WNW 21:04:51 18° NNW 21:08:46 10° NNE visible
19 May 8.2 22:46:37 10° NNW 22:49:56 15° N 22:53:10 10° NE visible
20 May 7.3 00:29:36 10° NNW 00:34:37 28° NNE 00:39:17 10° E visible
20 May 5.0 02:12:11 10° NW 02:17:57 81° SW 02:23:10 10° SSE visible
20 May 8.1 20:17:13 10° WNW 20:21:45 21° NNW 20:26:12 10° NNE visible
20 May 8.2 22:03:34 10° NNW 22:06:43 14° N 22:09:48 10° NNE visible
20 May 7.7 23:47:07 10° NNW 23:51:38 22° NNE 23:55:53 10° ENE visible
21 May 5.5 01:29:37 10° NNW 01:35:24 68° NE 01:40:37 10° SE visible
21 May 8.2 21:20:14 10° NW 21:23:30 15° N 21:26:43 10° NNE visible
21 May 7.9 23:04:34 10° NNW 23:08:33 18° NNE 23:12:22 10° ENE visible
22 May 6.2 00:47:07 10° NNW 00:52:42 46° NE 00:57:48 10° ESE visible
22 May 5.6 02:30:06 10° NW 02:35:15 38° WSW 02:39:59 10° S visible
22 May 8.1 20:36:40 10° NW 20:40:19 16° NNW 20:43:53 10° NNE visible
22 May 8.0 22:21:54 10° NNW 22:25:25 16° NNE 22:28:48 10° NE visible
23 May 6.8 00:04:39 10° NNW 00:09:54 33° NE 00:14:45 10° ESE visible
23 May 5.1 01:47:20 10° NW 01:52:56 60° WSW 01:57:59 10° SSE visible
23 May 8.0 19:53:02 10° WNW 19:57:11 18° NNW 20:01:14 10° NNE visible
23 May 8.0 21:39:02 10° NNW 21:42:13 14° N 21:45:19 10° NE visible
23 May 7.3 23:22:11 10° NNW 23:26:59 25° NNE 23:31:28 10° E visible
24 May 5.1 01:04:43 10° NW 01:10:28 88° NE 01:15:39 10° SE visible
24 May 8.0 20:55:53 10° NNW 20:59:00 14° N 21:02:03 10° NNE visible
24 May 7.6 22:39:41 10° NNW 22:43:58 20° NNE 22:48:02 10° ENE visible
25 May 5.6 00:22:10 10° NNW 00:27:52 59° NE 00:33:01 10° SE visible
25 May 6.0 02:05:27 10° NW 02:10:06 28° WSW 02:14:23 10° SSW visible
25 May 8.0 20:12:27 10° NW 20:15:48 15° N 20:19:04 10° NNE visible
25 May 7.7 21:57:06 10° NNW 22:00:52 17° NNE 22:04:29 10° ENE visible
25 May 6.3 23:39:41 10° NNW 23:45:08 41° NE 23:50:07 10° ESE visible
26 May 5.4 01:22:33 10° NW 01:27:51 44° WSW 01:31:52 15° S visible
26 May 7.8 21:14:23 10° NNW 21:17:43 15° N 21:20:56 10° NE visible
26 May 6.9 22:57:14 10° NNW 23:02:18 30° NE 23:06:59 10° E visible
27 May 5.0 00:39:50 10° NW 00:45:29 70° WSW 00:49:18 18° SSE visible
27 May 6.8 02:25:04 10° W 02:26:54 12° W 02:28:43 10° WSW visible
27 May 7.9 20:31:26 10° NNW 20:34:31 14° N 20:37:30 10° NE visible
27 May 7.3 22:14:45 10° NNW 22:19:21 23° NNE 22:23:39 10° E visible
27 May 5.2 23:57:15 10° NW 00:02:58 77° NE 00:06:57 17° SE visible
28 May 6.4 01:40:59 10° WNW 01:44:52 20° WSW 01:46:48 16° SW visible
28 May 7.5 21:32:14 10° NNW 21:36:18 19° NNE 21:40:09 10° ENE visible
28 May 5.8 23:14:44 10° NNW 23:20:19 52° NE 23:24:46 14° ESE visible
